STARLINK-2501 (48330 NORAD) Tracking and Keplerian Element Data

This shows tracking and keplerian element data for the satellite.

Feedback or suggestion? Click here.




ElementValue
Catalog48330
NameSTARLINK-2501
Epoch Orbit193
Epoch Day173.83334491
Epoch Year2021
RAAN266.8281
Inclination53.0521
Eccentricity0.0001461
Argument of Perigee115.568
Mean Anonmoly199.1352
Mean Motion15.06293798
Decay Rate0.00150135
L11 48330U 21036BG 21173.83334491 .00150135 00000-0 99141-2 0 9990
L22 48330 53.0521 266.8281 0001461 115.5680 199.1352 15.06293798 1930

Live tracking and technical data element details for STARLINK-2501 (NORAD 48330). STARLINK-2501 can be tracked NOW for your location showing map with azimuth and elevation plus other details from your city location.

Track the satellite on the map from your city or location and see movement details for azimuth, elevation, latitude, longitude, range, height, and movement on the map or in text.







IsCatalogInMostPopularTable: catalog: 48330, numindb: 21
Update: records affected: 1



GetName: 48330 STARLINK-2501

Hit Count: updated at: Thu, 24 Jun 2021 03:25:45 GMT